HULIANWANG DIGUI-117

导读 | 豆包AI

HULIANWANG DIGUI-117是中国在2025年12月8日发射的低轨卫星,属于互联网星座建设范畴。该卫星承担低轨宽带互联网组网验证任务,依托星间链路技术,推动全球无缝覆盖的宽带通信网络构建,将进一步完善中国低轨卫星星座布局,助力天地一体化信息网络建设。

基本信息
目录编号:
66956
目录名称:
HULIANWANG DIGUI-117
国际标识:
2025-287D
轨道中心:
EARTH
卫星名称:
HULIANWANG DIGUI-117
卫星全名:
HULIANWANG DIGUI-117
卫星状态:
在轨 (已飞行168 天)
发射日期:
2025-12-08 UTC
国别 :
中国 (CN)
星等 :
--
轨道信息
数据来源 国际轨道数据 AOE轨道数据
星历时间 2026-05-24T12:05:25+0800
23小时前
查看轨道信息
2026-05-22T04:00:00+0800
3天前
查看轨道信息
半长轴 7546.049km 7546.048km
偏心率 0.0003052 0.0002801
轨道倾角 86.493° 86.493°
近地点辐角 95.219° 96.328°
升交点赤经 290.495° 291.285°
平近点角 264.929° 287.159°
近地点 1165.608km 1165.797km
远地点 1170.216km 1170.025km
周期 108.727分钟 108.727分钟
每日圈数 13.244127 13.244131
详细信息
使用方式:
暂无
2D轨道图
3D轨道图
轨道高度分析图
轨道倾角分析图
轨道综合分析图
查看轨道综合分析图